Regional Weather Roundup
Issued by NWS

Home | Current Version | Previous Version | Graphics & Text | Print | Product List | Glossary On
Versions: 1 2 3 4 5 6 7 8 9 10 11 12 13 14 15 16 17 18 19 20 21 22 23 24 25 26 27 28 29 30 31 32 33 34 35 36 37 38 39 40 41 42 43 44 45 46 47 48 49 50
000
ASUS45 KPSR 261800
RWRAZ

PRELIMINARY ARIZONA REGIONAL HOURLY WEATHER ROUNDUP
NATIONAL WEATHER SERVICE PHOENIX AZ
1100 AM MST FRI DEC 26 2014

NOTE: FAIR INDICATES FEW OR NO CLOUDS BELOW 12,000 FEET WITH NO
SIGNIFICANT WEATHER AND/OR OBSTRUCTIONS TO VISIBILITY.

AZZ001>003-036-261900-
NORTHWEST ARIZONA

CITY           SKY/WX    TMP DP  RH WIND       PRES   REMARKS
KINGMAN        FAIR      39  14  36 N13       30.04R WCI  31
6HR MIN TEMP:  21; 6HR MAX TEMP:  39;

$$

AZZ004>008-015-016-018-261900-
NORTH CENTRAL ARIZONA

CITY           SKY/WX    TMP DP  RH WIND       PRES   REMARKS
GRAND CANYON   PTSUNNY   26  14  60 NW9G17    29.90R WCI  17
6HR MIN TEMP:   8; 6HR MAX TEMP:  26;

PRESCOTT       FAIR      33  15  47 N9        29.97R WCI  25
6HR MIN TEMP:  20; 6HR MAX TEMP:  33;

FLAGSTAFF      NOT AVBL
PAYSON         FAIR      34  12  40 VRB6      29.96S WCI  29
PAGE           FAIR      38  10  31 NW10      29.90R WCI  31
6HR MIN TEMP:  31; 6HR MAX TEMP:  38;

$$

AZZ009>014-017-261900-
NORTHEAST ARIZONA

CITY           SKY/WX    TMP DP  RH WIND       PRES   REMARKS
WINSLOW        NOT AVBL
SAINT JOHNS    FAIR      29  16  58 W12       29.90R WCI  19
6HR MIN TEMP:  12; 6HR MAX TEMP:  29; 6HR PCP: TRACE;

WINDOW ROCK    PTSUNNY   24  14  65 W7        29.85R WCI  16
6HR MIN TEMP:   8; 6HR MAX TEMP:  24; 6HR PCP: TRACE;

$$

AZZ023-261900-
GREATER PHOENIX AREA

CITY           SKY/WX    TMP DP  RH WIND       PRES   REMARKS
PHOENIX        FAIR      49  18  29 CALM      30.04R
6HR MIN TEMP:  38; 6HR MAX TEMP:  49;

GLENDALE       SUNNY     48  23  37 CALM      30.07R
LUKE AFB       FAIR      48  22  35 S1        30.04R
6HR MIN TEMP:  34; 6HR MAX TEMP:  48;

DEER VALLEY    FAIR      47  19  33 CALM      30.03R
6HR MIN TEMP:  31; 6HR MAX TEMP:  47;

SCOTTSDALE     FAIR      46  19  34 CALM      30.05R
6HR MIN TEMP:  33; 6HR MAX TEMP:  46;

MESA-FALCON    SUNNY     46  16  29 NE3       30.04R
MESA-GATEWAY   SUNNY     46  18  31 E5        30.06R
CHANDLER       SUNNY     46  19  34 VRB5      30.05R
$$

AZZ027-028-261900-
SOUTHWEST MARICOPA COUNTY AND PINAL COUNTY

CITY           SKY/WX    TMP DP  RH WIND       PRES   REMARKS
CASA GRANDE    FAIR      48  19  32 CALM      30.05R
6HR MIN TEMP:  34; 6HR MAX TEMP:  48;

$$

AZZ503-504-507>509-261900-
SOUTHEAST ARIZONA

CITY           SKY/WX    TMP DP  RH WIND       PRES   REMARKS
TUCSON         FAIR      48  18  30 W3        30.04R
6HR MIN TEMP:  37; 6HR MAX TEMP:  48;

DAVIS-MONTHAN  FAIR      47  16  29 S2        30.01S
6HR MIN TEMP:  35; 6HR MAX TEMP:  47;

RYAN FIELD       N/A     52  23  32 NW5       30.04R
NOGALES        FAIR      46  24  42 CALM      29.99S
6HR MIN TEMP:  38; 6HR MAX TEMP:  46;

SIERRA VISTA   PTSUNNY   44  22  41 NW13      29.97S
6HR MIN TEMP:  34; 6HR MAX TEMP:  44; 6HR PCP:  0.01;

SAFFORD        FAIR      46  15  28 NW12      29.98R
6HR MIN TEMP:  34; 6HR MAX TEMP:  46;

$$

AZZ020-021-025-026-031-261900-
SOUTHWEST ARIZONA

CITY           SKY/WX    TMP DP  RH WIND       PRES   REMARKS
YUMA           FAIR     N/A N/A N/A VRB3      30.10R
$$

CAZ031-033-041-043-047-048-061-261900-
SOUTHERN CALIFORNIA

CITY           SKY/WX    TMP DP  RH WIND       PRES   REMARKS
DOWNTOWN L.A.  FAIR      56  20  24 CALM      30.10R
6HR MIN TEMP:  42; 6HR MAX TEMP:  56;

L.A. AIRPORT   FAIR      55  19  24 S3        30.10R
6HR MIN TEMP:  44; 6HR MAX TEMP:  55;

SAN DIEGO      FAIR      58  17  20 CALM      30.09R
6HR MIN TEMP:  47; 6HR MAX TEMP:  58;

BURBANK        FAIR      56  16  20 CALM      30.08R
6HR MIN TEMP:  43; 6HR MAX TEMP:  57;

ONTARIO        FAIR      55  13  18 NE21G39   30.07R
6HR MIN TEMP:  39; 6HR MAX TEMP:  55;

RIVERSIDE      FAIR      56  10  16 NE9G21    30.09R
6HR MIN TEMP:  49; 6HR MAX TEMP:  56;

PALM SPRINGS   FAIR      58  10  15 VRB5      30.15R
6HR MIN TEMP:  46; 6HR MAX TEMP:  58;

EL CENTRO NAS  FAIR      58  20  22 NW7       30.12S
6HR MIN TEMP:  35; 6HR MAX TEMP:  58;

IMPERIAL       FAIR      57  24  28 N9        30.11S
6HR MIN TEMP:  35; 6HR MAX TEMP:  57;

BLYTHE         FAIR      53  16  23 CALM      30.10R
6HR MIN TEMP:  40; 6HR MAX TEMP:  53;

$$

NVZ020-UTZ003-261900-
SOUTHERN NEVADA-UTAH

CITY           SKY/WX    TMP DP  RH WIND       PRES   REMARKS
LAS VEGAS      NOT AVBL
SALT LAKE CITY CLOUDY    27  18  69 N17       30.02R WCI  14
6HR MIN TEMP:  24; 6HR MAX TEMP:  28;

$$

NMZ009-TXZ055-261900-
NEW MEXICO-WEST TEXAS

CITY           SKY/WX    TMP DP  RH WIND       PRES   REMARKS
ALBUQUERQUE    FAIR      30  15  53 W17       29.88R WCI  18
6HR MIN TEMP:  27; 6HR MAX TEMP:  31; 6HR PCP: TRACE;

EL PASO        FLURRIES  37  35  92 S7        29.97S WCI  32
6HR MIN TEMP:  36; 6HR MAX TEMP:  45; 6HR PCP:  0.11;

$$


........................KEY........................
SKY/WX - SKY CONDITION/WEATHER
TMP    - TEMPERATURE IN FAHRENHEIT
DP     - DEW POINT IN FAHRENHEIT
RH     - RELATIVE HUMIDITY IN PERCENT
WIND   - DIRECTION AND SPEED IN MILES PER HOUR (MPH)
VRB    - VARIABLE WIND DIRECTION
PRES   - MEAN SEA LEVEL PRESSURE IN INCHES OF MERCURY
         F - FALLING PRESSURE   R - RISING PRESSURE
         S - STEADY PRESSURE
VSB    - VISIBILITY IN MILES
HX     - HEAT INDEX IN FAHRENHEIT
WCI    - WIND CHILL INDEX IN FAHRENHEIT
TC     - TEMPERATURE IN CELSIUS WHICH IS ALSO KNOWN AS
         TEMPERATURE IN CENTIGRADE
AFB    - AIR FORCE BASE
         LUKE AFB IS LUKE AIR FORCE BASE
         DAVIS-MONTHAN IS DAVIS-MONTHAN AIR FORCE BASE
NAS    - NAVAL AIR STATION
         EL CENTRO NAS IS EL CENTRO NAVAL AIR STATION
N/A    - NOT AVAILABLE



USA.gov is the U.S. government's official web portal to all federal, state and local government web resources and services.